When you browse on this site, cookies collect data to enhance your experience and personalize the content and advertising you see.
Visit our Privacy Policy to learn more. By continuing to use the site, you agree to this use of cookies and data.
  • In Romania
  • List of Countries
  • For 7 days
  • Water Temperature
  • Satellite Maps
  • Weather Map
  • Weather Widgets
  • user-avatar
    Login

    Hourly Weather Aron

    Today, 21 July, Sunday

    Time Temperature Precipitation Wind Pressure Humidity
    00:00 +18°C° 0 mm 1 mps 676 mmHg 92%
    01:00 +18°C° 0 mm 1 mps 676 mmHg 92%
    02:00 +18°C° 0 mm 1 mps 676 mmHg 92%
    03:00 +18°C° 0 mm 1 mps 676 mmHg 92%
    04:00 +18°C° 0 mm 1 mps 676 mmHg 90%
    05:00 +18°C° 0 mm 1 mps 676 mmHg 88%
    06:00 +19°C° 0 mm 1 mps 677 mmHg 87%
    07:00 +21°C° 0 mm 1 mps 677 mmHg 79%
    08:00 +23°C° 0 mm 1 mps 678 mmHg 70%
    09:00 +25°C° 0 mm 2 mps 678 mmHg 61%
    10:00 +26°C° 0 mm 1 mps 679 mmHg 57%
    11:00 +28°C° 0 mm 1 mps 679 mmHg 53%
    12:00 +29°C° 0 mm 1 mps 679 mmHg 50%
    13:00 +29°C° 0.1 mm 1 mps 679 mmHg 50%
    14:00 +29°C° 0.1 mm 1 mps 679 mmHg 51%
    15:00 +29°C° 0.1 mm 1 mps 679 mmHg 51%
    16:00 +28°C° 0.4 mm 1 mps 678 mmHg 58%
    17:00 +27°C° 0.4 mm 1 mps 678 mmHg 64%
    18:00 +26°C° 0.4 mm 1 mps 677 mmHg 71%
    19:00 +24°C° 0.4 mm 1 mps 677 mmHg 78%
    20:00 +22°C° 0.4 mm 1 mps 677 mmHg 84%
    21:00 +18°C° 0.4 mm 0 mps 678 mmHg 91%
    22:00 +20°C° 0.1 mm 1 mps 678 mmHg 90%
    23:00 +19°C° 0.1 mm 1 mps 678 mmHg 88%

    Tomorrow, 22 July, Monday

    Time Temperature Precipitation Wind Pressure Humidity
    00:00 +18°C° 0.1 mm 2 mps 678 mmHg 87%
    01:00 +18°C° 0 mm 2 mps 678 mmHg 85%
    02:00 +18°C° 0 mm 2 mps 677 mmHg 83%
    03:00 +18°C° 0 mm 2 mps 677 mmHg 81%
    04:00 +18°C° 0 mm 2 mps 677 mmHg 79%
    05:00 +19°C° 0 mm 2 mps 677 mmHg 77%
    06:00 +20°C° 0 mm 1 mps 677 mmHg 75%
    07:00 +23°C° 0 mm 1 mps 678 mmHg 67%
    08:00 +25°C° 0 mm 1 mps 679 mmHg 58%
    09:00 +28°C° 0 mm 1 mps 679 mmHg 49%
    10:00 +29°C° 0 mm 1 mps 679 mmHg 45%
    11:00 +31°C° 0 mm 1 mps 679 mmHg 42%
    12:00 +32°C° 0 mm 2 mps 679 mmHg 38%
    13:00 +32°C° 0 mm 1 mps 679 mmHg 38%
    14:00 +32°C° 0 mm 1 mps 679 mmHg 39%
    15:00 +32°C° 0 mm 1 mps 679 mmHg 39%
    16:00 +31°C° 0.2 mm 1 mps 678 mmHg 46%
    17:00 +30°C° 0.2 mm 1 mps 678 mmHg 53%
    18:00 +27°C° 0.2 mm 0 mps 677 mmHg 60%
    19:00 +27°C° 0 mm 1 mps 677 mmHg 59%
    20:00 +25°C° 0 mm 2 mps 677 mmHg 59%
    21:00 +22°C° 0 mm 3 mps 677 mmHg 59%
    22:00 +22°C° 0 mm 3 mps 676 mmHg 55%
    23:00 +22°C° 0 mm 3 mps 676 mmHg 50%

    Day after tomorrow, 23 July, Tuesday

    Time Temperature Precipitation Wind Pressure Humidity
    00:00 +21°C° 0 mm 3 mps 676 mmHg 46%
    01:00 +21°C° 0 mm 3 mps 676 mmHg 44%
    02:00 +21°C° 0 mm 3 mps 676 mmHg 42%
    03:00 +21°C° 0 mm 3 mps 675 mmHg 41%
    04:00 +21°C° 0 mm 3 mps 675 mmHg 43%
    05:00 +21°C° 0 mm 3 mps 675 mmHg 45%
    06:00 +21°C° 0 mm 3 mps 675 mmHg 47%
    07:00 +25°C° 0 mm 2 mps 676 mmHg 41%
    08:00 +29°C° 0 mm 1 mps 677 mmHg 35%
    09:00 +32°C° 0 mm 1 mps 677 mmHg 28%
    10:00 +33°C° 0 mm 1 mps 677 mmHg 26%
    11:00 +34°C° 0 mm 1 mps 677 mmHg 23%
    12:00 +36°C° 0 mm 2 mps 677 mmHg 21%
    13:00 +35°C° 0 mm 1 mps 677 mmHg 23%
    14:00 +34°C° 0 mm 1 mps 676 mmHg 25%
    15:00 +34°C° 0 mm 1 mps 676 mmHg 27%
    16:00 +32°C° 0 mm 1 mps 675 mmHg 33%
    17:00 +31°C° 0 mm 1 mps 675 mmHg 38%
    18:00 +29°C° 0 mm 1 mps 674 mmHg 44%
    19:00 +27°C° 0 mm 2 mps 674 mmHg 44%
    20:00 +26°C° 0 mm 2 mps 675 mmHg 44%
    21:00 +24°C° 0 mm 3 mps 675 mmHg 43%
    22:00 +22°C° 0 mm 3 mps 675 mmHg 47%
    23:00 +20°C° 0 mm 2 mps 674 mmHg 51%

    24 July, Wednesday

    Time Temperature Precipitation Wind Pressure Humidity
    00:00 +19°C° 0 mm 2 mps 674 mmHg 55%
    01:00 +19°C° 0 mm 2 mps 674 mmHg 53%
    02:00 +19°C° 0 mm 2 mps 674 mmHg 50%
    03:00 +19°C° 0 mm 2 mps 673 mmHg 48%
    04:00 +19°C° 0 mm 2 mps 674 mmHg 50%
    05:00 +20°C° 0 mm 2 mps 674 mmHg 52%
    06:00 +20°C° 0 mm 2 mps 674 mmHg 53%
    07:00 +24°C° 0 mm 1 mps 675 mmHg 47%
    08:00 +27°C° 0 mm 1 mps 675 mmHg 40%
    09:00 +30°C° 0 mm 1 mps 676 mmHg 34%
    10:00 +31°C° 0 mm 1 mps 676 mmHg 31%
    11:00 +32°C° 0 mm 2 mps 676 mmHg 28%
    12:00 +35°C° 0 mm 2 mps 676 mmHg 26%
    13:00 +35°C° 0 mm 2 mps 675 mmHg 26%
    14:00 +35°C° 0 mm 2 mps 675 mmHg 26%
    15:00 +34°C° 0 mm 1 mps 675 mmHg 26%
    16:00 +33°C° 0 mm 1 mps 674 mmHg 31%
    17:00 +31°C° 0 mm 2 mps 674 mmHg 37%
    18:00 +30°C° 0 mm 2 mps 673 mmHg 42%
    19:00 +28°C° 0 mm 2 mps 673 mmHg 43%
    20:00 +26°C° 0 mm 3 mps 673 mmHg 44%
    21:00 +24°C° 0 mm 3 mps 673 mmHg 45%
    22:00 +22°C° 0 mm 3 mps 673 mmHg 45%
    23:00 +22°C° 0 mm 3 mps 672 mmHg 46%

    25 July, Thursday

    Time Temperature Precipitation Wind Pressure Humidity
    00:00 +22°C° 0 mm 3 mps 672 mmHg 46%
    01:00 +22°C° 0 mm 3 mps 672 mmHg 45%
    02:00 +21°C° 0 mm 3 mps 672 mmHg 44%
    03:00 +21°C° 0 mm 3 mps 672 mmHg 43%
    04:00 +21°C° 0 mm 3 mps 672 mmHg 44%
    05:00 +21°C° 0 mm 3 mps 672 mmHg 45%
    06:00 +21°C° 0 mm 3 mps 672 mmHg 45%
    07:00 +26°C° 0 mm 2 mps 673 mmHg 40%
    08:00 +29°C° 0 mm 2 mps 673 mmHg 34%
    09:00 +32°C° 0 mm 1 mps 674 mmHg 28%
    10:00 +33°C° 0 mm 1 mps 674 mmHg 26%
    11:00 +35°C° 0 mm 2 mps 674 mmHg 23%
    12:00 +36°C° 0 mm 2 mps 674 mmHg 21%
    13:00 +35°C° 0 mm 2 mps 674 mmHg 24%
    14:00 +35°C° 0 mm 2 mps 673 mmHg 27%
    15:00 +34°C° 0 mm 2 mps 673 mmHg 29%
    16:00 +31°C° 0 mm 2 mps 673 mmHg 37%
    17:00 +30°C° 0 mm 1 mps 672 mmHg 44%
    18:00 +29°C° 0 mm 1 mps 672 mmHg 51%
    19:00 +26°C° 0.2 mm 1 mps 672 mmHg 61%
    20:00 +23°C° 0.2 mm 2 mps 672 mmHg 71%
    21:00 +19°C° 0.2 mm 2 mps 672 mmHg 80%
    22:00 +18°C° 0.2 mm 2 mps 672 mmHg 84%
    23:00 +18°C° 0.2 mm 2 mps 672 mmHg 87%

    26 July, Friday

    Time Temperature Precipitation Wind Pressure Humidity
    00:00 +18°C° 0.2 mm 1 mps 673 mmHg 91%
    01:00 +18°C° 0.1 mm 1 mps 672 mmHg 92%
    02:00 +16°C° 0.1 mm 1 mps 672 mmHg 94%
    03:00 +16°C° 0.1 mm 1 mps 672 mmHg 96%
    04:00 +15°C° 0.1 mm 1 mps 673 mmHg 96%
    05:00 +15°C° 0.1 mm 1 mps 673 mmHg 97%
    06:00 +15°C° 0.1 mm 1 mps 673 mmHg 97%
    07:00 +15°C° 0.1 mm 1 mps 673 mmHg 96%
    08:00 +15°C° 0.1 mm 1 mps 673 mmHg 95%
    09:00 +15°C° 0.1 mm 1 mps 674 mmHg 94%
    10:00 +15°C° 0.2 mm 1 mps 674 mmHg 93%
    11:00 +16°C° 0.2 mm 1 mps 674 mmHg 92%
    12:00 +16°C° 0.2 mm 1 mps 674 mmHg 91%
    13:00 +16°C° 0.2 mm 1 mps 674 mmHg 90%
    14:00 +16°C° 0.2 mm 1 mps 674 mmHg 89%
    15:00 +16°C° 0.2 mm 1 mps 674 mmHg 89%
    16:00 +15°C° 0 mm 1 mps 674 mmHg 89%
    17:00 +15°C° 0 mm 1 mps 674 mmHg 89%
    18:00 +15°C° 0 mm 1 mps 674 mmHg 89%
    19:00 +15°C° 0 mm 1 mps 674 mmHg 89%
    20:00 +15°C° 0 mm 1 mps 675 mmHg 88%
    21:00 +14°C° 0 mm 1 mps 675 mmHg 88%
    22:00 +14°C° 0 mm 1 mps 675 mmHg 89%
    23:00 +13°C° 0 mm 0 mps 675 mmHg 89%
    Show more